Weather in Bibikovo

Russia / Tambov Oblast     52°44′33″N   43°04′41″E
temp.,
°C
wind,
m/s
gust,
m/s
humid.,
%
clouds,
%
prec.,
mm/h
press.,
hPa
HPBL,
m
4 march, thu
thu400:00−6wsw4119685 0.0 1013222
03:00−2wsw6129390 0.1 1011591
06:00−2wsw71392100 0.1 1009653
09:00−1wsw91592100 0.3 1007772
12:000wsw91691100 0.0 1006680
15:00+1wsw91685100 0.0 1004856
18:000wsw71487100 0.0 1003893
21:000wsw51292100 0.0 1002710
5 march, fri
fri500:00−1wsw51095100 0.1 1001529
03:00−1wsw51097100 0.3 1001470
06:00−1w4998100 0.6 1002525
09:00−3nw5794100 0.9 1005421
12:00−2nnw469197 0.1 1007570
15:00−2nw468696 0.1 1010739
18:00−7wnw348941 0.0 101226
21:00−9wnw239046 0.0 101421
6 march, sat
sat600:00−9wnw229370 0.0 101521
03:00−10nw129385 0.0 101621
06:00−10n1290100 0.0 101621
09:00−9ne2291100 0.0 101684
12:00−6ne2387100 0.0 1016247
15:00−6ene1287100 0.0 1015335
18:00−10e129320 0.0 101521
21:00−12se128925 0.0 101521
7 march, sun
sun700:00−12sw2287100 0.0 101521
03:00−11sw359597 0.1 101687
06:00−11wsw369693 0.1 1016137
09:00−10wsw599390 0.1 1015313
12:00−7sw8138455 0.0 1013693
15:00−5sw9167977 0.0 10091101
18:00−4sw101883100 0.0 10061186
21:00−3sw101794100 1.0 10031087
8 march, mon
mon800:00−5w41280100 1.6 1004551
03:00−9wsw3487100 1.6 100450
06:00−10ssw4785100 0.0 1003121
09:00−5ssw4796100 0.6 1001375
12:00−3w61189100 2.3 9991009
15:00−6w101569100 2.5 10031472
18:00−9w7158151 0.0 1007742
21:00−11w5138533 0.0 1011348